Location: New Plymouth
(39.0670°S, 174.0830°E)
Time: 03:36:34
(UTC+13:00)

Cosmos 1486 Rocket - Pass Details

Date: 24 January 2019
Orbit: 759 x 783 km, 74.1° (Epoch: 18 February)

Event Time Altitude Azimuth Distance (km) Brightness Sun altitude
Exits shadow 22:36:54 10° 345° (NNW) 2,274 6.2 -18.3°
Maximum altitude 22:42:04 86° 72° (ENE) 779 3.9 -19.0°
Drops below altitude 10° 22:47:22 10° 160° (SSE) 2,334 6.8 -19.7°
Sets 22:49:47 0° 160° (SSE) 3,271 7.7 -20.0°
